Regional Weather Roundup
Issued by NWS Nashville, TN

Home | Current Version | Previous Version | Text Only | Print | Product List | Glossary On
Versions: 1 2 3 4 5 6 7 8 9 10 11 12 13 14 15 16 17 18 19 20 21 22 23 24 25 26 27 28 29 30 31 32 33 34 35 36 37 38 39 40 41 42 43 44 45 46 47 48 49 50
000
ASUS44 KOHX 271610
RWROHX
MIDDLE TENNESSEE HOURLY WEATHER ROUNDUP
NATIONAL WEATHER SERVICE NASHVILLE TN
1100 AM CDT MON MAR 27 2017

NOTE: "FAIR" INDICATES FEW OR NO CLOUDS BELOW 12,000 FEET WITH
NO SIGNIFICANT WEATHER AND/OR OBSTRUCTIONS TO VISIBILITY.

* THESE REPORTS ARE NOT UNDER NWS QUALITY CONTROL AND MAY NOT
  REPORT WEATHER SUCH AS PRECIPITATION AND FOG.


TNZ005>011-023>034-057-059-062>066-078-080-271700
...NORTHERN MIDDLE TENNESSEE...

CITY           SKY/WX    TMP DP  RH WIND       PRES   REMARKS
CLARKSVILLE    CLOUDY    67  61  81 S14       29.93S
CROSSVILLE     CLOUDY    68  57  68 SW7       30.05F
GALLATIN       PTSUNNY   70  61  73 S7G14     30.00F
NASHVILLE      CLOUDY    70  60  70 S15G22    29.98S
PORTLAND       SUNNY     68  61  77 S15       29.96F
SMYRNA         CLOUDY    72  62  71 S8G18     29.98F
SPARTA         PTSUNNY   70  61  73 SW13      30.01F
SPRINGFIELD    MOSUNNY   70  63  78 S10       29.94S
WEST NASHVILLE PTSUNNY   70  61  73 S9        29.95F
$$
TNZ056-058-060-061-075>077-079-093>097-271700
...SOUTHERN MIDDLE TENNESSEE...

CITY           SKY/WX    TMP DP  RH WIND       PRES   REMARKS
COLUMBIA       PTSUNNY   70  70 100 S12       29.96S
FAYETTEVILLE   CLOUDY    70  61  73 S10       30.02F
MCMINNVILLE    CLOUDY    68  63  83 SW7       30.03F
SHELBYVILLE    PTSUNNY   72  63  73 S14       30.02F
TULLAHOMA      PTSUNNY   66  61  82 SW12      30.04S
WINCHESTER     CLOUDY    70  59  68 S6        30.04F
$$


...KEY TO REMARKS...
VSB - VISIBILITY IN MILES
WCI - WIND CHILL INDEX
HX  - HEAT INDEX




USA.gov is the U.S. government's official web portal to all federal, state and local government web resources and services.